Miscellaneous Local Product
Issued by NWS Hastings, NE

Home | Current Version | Previous Version | Graphics & Text | Print | Product List | Glossary On
Versions: 1 2 3 4 5 6 7 8 9 10 11 12 13 14 15 16 17 18 19 20 21 22 23 24 25 26 27 28 29 30 31 32 33 34 35 36 37 38 39 40 41 42 43 44 45 46 47 48 49 50
000
AXUS43 KGID 010302
MISGRI

GID CWA HOURLY WEATHER ROUNDUP
NATIONAL WEATHER SERVICE HASTINGS NE
1000 PM CDT THU JUL 31 2014

NOTE: "FAIR" INDICATES FEW OR NO CLOUDS BELOW 12,000 FEET WITH NO
SIGNIFICANT WEATHER AND/OR OBSTRUCTIONS TO VISIBILITY.

...SOUTH CENTRAL NEBRASKA...

CITY           SKY/WX    TMP DP  RH WIND       PRES   REMARKS
GRAND ISLAND   CLEAR     72  60  66 NW6       30.03R
HASTINGS       CLEAR     74  58  57 CALM      30.03R
KEARNEY        CLEAR     72  57  60 N10       30.05R
ORD            CLEAR     68  60  75 CALM      30.05R
YORK           PTCLDY    73  64  73 SE5       30.01R
AURORA         CLEAR     71  65  82 CALM      30.01R
LEXINGTON      CLEAR     69  58  66 NE6       30.06S
HOLDREGE       CLEAR     68  59  73 NE8       30.06R
HEBRON         CLEAR     73  53  49 S8        30.01R

...NEBRASKA PANHANDLE...

CITY           SKY/WX    TMP DP  RH WIND       PRES   REMARKS
CHADRON        PTCLDY    74  49  41 CALM      30.12R
ALLIANCE       CLEAR     68  46  45 NE6       30.16R
SCOTTSBLUFF    CLEAR     68  53  58 E7        30.16R
SIDNEY         CLEAR     68  39  34 NE6       30.19R

...WESTERN AND NORTH CENTRAL NEBRASKA...

CITY           SKY/WX    TMP DP  RH WIND       PRES   REMARKS
VALENTINE      CLEAR     74  53  48 E7        30.08R
AINSWORTH      CLEAR     67  58  71 E7        30.08R
ONEILL         CLEAR     71  64  81 E7        30.07R
BROKEN BOW     CLEAR     70  61  73 E6        30.08R
IMPERIAL       CLEAR     73  59  61 CALM      30.12R
NORTH PLATTE   CLEAR     68  53  58 CALM      30.09R
MCCOOK         PTCLDY    75  55  49 NW3       30.08R

...EASTERN NEBRASKA...

CITY           SKY/WX    TMP DP  RH WIND       PRES   REMARKS
NORFOLK        CLEAR     69  61  75 E5        30.05R
SO SIOUX CITY  CLEAR     63  60  90 CALM      30.04S
TEKAMAH        PTCLDY    67  60  78 CALM      30.03R
ALBION         CLEAR     67  61  81 CALM      30.05R
OMAHA EPPLEY   MOCLDY    73  60  63 E10       30.03R
OFFUTT AFB     CLOUDY    72  63  73 NE5       30.03R
MILLARD        CLOUDY    73  62  68 SE5       30.03R
LINCOLN        MOCLDY    77  58  51 E14       30.02R
NEBRASKA CITY  MOCLDY    72  58  59 SE7       30.03R
BEATRICE       CLEAR     76  54  46 S10       30.00S
FALLS CITY     PTCLDY    69  60  73 SE6       30.03R

...NORTHERN KANSAS...

CITY           SKY/WX    TMP DP  RH WIND       PRES   REMARKS
GOODLAND       CLEAR     68  52  56 SW6       30.16R
HILL CITY      MOCLDY    79  53  40 S5        30.04R
NORTON         MOCLDY    75  48  38 CALM      30.05R
PHILLIPSBURG   MOCLDY    79  57  47 E3        30.01S
SMITH CENTER   MOCLDY    79  57  47 S9        30.03R
HAYS           CLEAR     73  55  53 S10       30.06R
RUSSELL        PTCLDY    71  58  63 S9        30.04R
CONCORDIA      PTCLDY    72  53  51 S9        30.03R
SALINA         PTCLDY    73  53  49 S9        30.03R
TOPEKA         CLEAR     73  58  59 CALM      30.04R



USA.gov is the U.S. government's official web portal to all federal, state and local government web resources and services.